Time,B instrument,Bx,By,Bz,sigma B,Ion instrument,Status,Tp_par,Tp_perp,carrot,r_sun,clat,clong,earth_he_angle,n_p,vp_x,vp_y,vp_z,vth_p_par,vth_p_perp
1980-07-20 01:22:02,-1,nan,nan,nan,nan,1,3,nan,nan,1698,0.83409971,3.6695578,277.77219,106.90891,nan,343.446,-1.44961,1.35875,nan,nan
1980-07-20 01:24:44,1,-0.266667,2.2,1.4,0.368179,1,1,100358.0,97041.1,1698,0.8341133,3.669353,277.74878,106.90894,6.98419,346.958,-1.43404,1.96575,40.7038,40.0254
1980-07-20 01:28:20,-1,nan,nan,nan,nan,1,4,nan,nan,1697,0.83409691,3.7581606,277.78152,106.97682,nan,nan,nan,nan,nan,nan
1980-07-20 01:28:22,1,-2.8,2.56667,2.6,0.169967,1,1,64511.6,53822.7,1697,0.8340919,3.758234,277.78152,106.97682,5.67015,331.293,-1.22817,9.93039,32.6345,29.8085
1980-07-20 01:30:08,1,-2.9,2.06667,2.6,0.149071,1,1,78543.9,58899.7,1697,0.83410692,3.7580156,277.76593,106.97685,5.62427,331.402,-5.68633,8.70632,36.0093,31.1827
1980-07-20 01:32:52,1,-1.83333,2.4,1.96667,0.459468,1,1,93348.8,71592.4,1697,0.83411694,3.7578707,277.73862,106.97688,6.47236,342.219,-5.00789,5.8141,39.2566,34.3788
1980-07-20 01:35:34,1,-1.13333,1.7,2.7,0.298142,1,1,95464.5,112520.0,1697,0.83413196,3.7576523,277.71521,106.97691,7.74665,344.831,-9.1339,12.8189,39.6989,43.0995
1980-07-20 01:38:16,1,-2.33333,1.53333,4.33333,0.282843,1,1,105944.0,57216.7,1697,0.83414698,3.7574339,277.6918,106.97696,6.02472,339.865,-11.1647,23.5708,41.8212,30.734
1980-07-20 01:40:58,1,-2.23333,1.03333,4.5,0.352767,1,1,104706.0,75656.2,1697,0.83415699,3.7572889,277.66449,106.97697,6.76484,341.359,-12.0034,21.862,41.576,35.3411
1980-07-20 01:43:40,1,-2.5,1.4,3.4,0.326599,1,1,102965.0,69738.3,1697,0.83417201,3.7570705,277.64108,106.97702,6.44354,338.281,-7.21513,18.5661,41.2291,33.9307
1980-07-20 01:46:22,1,-1.56667,0.966667,3.36667,0.687992,1,1,111363.0,86751.4,1697,0.83418703,3.7568531,277.61768,106.97705,7.44649,343.747,-12.3242,18.0622,42.8774,37.8439
1980-07-20 01:49:04,1,-2.25,1.3,3.85,0.273861,1,1,108460.0,65727.3,1697,0.83420205,3.7566347,277.59039,106.9771,6.34096,338.119,-11.7393,19.7605,42.3149,32.9405
1980-07-20 01:51:46,1,-2.23333,0.7,4.33333,0.194365,1,1,112011.0,68448.6,1697,0.83421206,3.7564888,277.56696,106.97711,6.51384,337.673,-12.1098,21.0689,43.0019,33.6155
1980-07-20 01:54:28,1,-2.03333,0.966667,4.13333,0.326599,1,1,92965.0,79423.9,1697,0.83422709,3.7562714,277.54358,106.97716,7.2346,338.775,-9.34314,17.7758,39.1758,36.2104
1980-07-20 01:57:10,1,-2.43333,1.3,3.53333,0.253859,1,1,99641.0,97044.7,1697,0.83424211,3.756053,277.51627,106.97719,7.27389,335.432,-10.0832,14.3841,40.558,40.0261
1980-07-20 01:59:52,1,-2.36667,0.566667,2.76667,0.270801,1,1,105020.0,96604.4,1697,0.83425212,3.755908,277.49286,106.97722,7.53426,334.054,-13.2664,13.6366,41.6383,39.9352
1980-07-20 02:02:34,1,-2.96667,1.2,2.73333,0.405518,1,1,88108.0,60715.4,1697,0.83426708,3.7556896,277.46555,106.97725,6.17996,332.207,-11.2486,12.1184,38.1387,31.6597
1980-07-20 02:05:16,1,-1.96667,0.5,3.5,0.262467,1,1,93236.3,79399.1,1697,0.8342821,3.7554722,277.44214,106.97728,6.8272,337.218,-6.63872,15.3234,39.2329,36.2048
1980-07-20 02:07:58,1,-2.56667,0.633333,3.4,0.210819,1,1,105089.0,85195.4,1697,0.83429211,3.7553263,277.41873,106.97731,6.76482,330.001,-9.18584,15.4723,41.652,37.503
1980-07-20 02:10:40,1,-3.2,1.1,2.6,0.0,1,1,81089.3,70377.4,1697,0.83430707,3.7551088,277.39142,106.97734,6.30072,332.681,-7.71822,13.1202,36.5881,34.0859
1980-07-20 02:13:22,1,-2.93333,0.866667,1.8,0.253859,1,1,75188.5,77341.8,1697,0.83432209,3.7548904,277.36801,106.97739,6.37595,332.49,-8.29341,11.4764,35.2317,35.7326
1980-07-20 02:16:04,1,-3.1,1.53333,2.2,0.169967,1,1,67805.9,70773.8,1697,0.83433712,3.754673,277.3446,106.97742,6.44587,330.043,-4.81482,8.6039,33.4574,34.1817
1980-07-20 02:18:46,1,-2.8,1.2,1.93333,0.188562,1,1,80010.9,77661.1,1697,0.83434707,3.754528,277.31729,106.97745,6.86456,333.598,-8.67053,11.1398,36.344,35.8063
1980-07-20 02:21:28,1,-2.73333,1.2,1.53333,0.194365,1,1,72621.6,75519.8,1697,0.83436209,3.7543097,277.29388,106.97748,6.64678,331.158,-8.08018,8.84074,34.6251,35.3092
1980-07-20 02:24:10,1,-2.7,0.833333,1.4,0.169967,1,1,63036.3,75058.7,1697,0.83437711,3.7540922,277.27048,106.97751,6.54964,333.789,-9.96212,8.20088,32.2592,35.2013
1980-07-20 02:26:52,1,-1.4,0.0,0.3,0.382971,1,1,73244.5,90360.9,1697,0.83438712,3.7539463,277.24316,106.97754,6.27358,339.003,-15.5184,-1.83671,34.7733,38.6232
1980-07-20 02:29:34,1,0.333333,1.1,0.0,0.298142,1,1,72125.9,84638.8,1697,0.83440208,3.7537289,277.21976,106.97757,6.27851,355.565,-8.62922,-8.47817,34.5067,37.3803
1980-07-20 02:32:16,1,-0.366667,1.03333,-0.0333333,0.216025,1,1,71001.6,84928.8,1697,0.8344171,3.7535105,277.19638,106.97762,6.38826,345.378,-12.106,-8.18518,34.2367,37.4443
1980-07-20 02:34:58,1,-2.33333,1.4,1.13333,0.194365,1,1,81272.3,74017.0,1697,0.83442712,3.7533655,277.16904,106.97763,5.94037,334.193,-4.88356,6.64389,36.6293,34.9562
1980-07-20 02:37:40,1,-0.966667,1.06667,0.166667,0.757188,1,1,64172.6,97490.4,1697,0.83444208,3.7531471,277.14563,106.97766,6.8317,334.422,-18.3395,7.16041,32.5486,40.118
1980-07-20 02:40:22,1,-0.3,0.9,-0.8,1.11022e-16,1,1,89470.8,73869.0,1697,0.8344571,3.7529297,277.12225,106.97771,5.92315,343.922,-13.9401,0.362776,38.4325,34.9212
1980-07-20 02:43:04,1,-0.133333,1.16667,0.0,0.278887,1,1,75111.9,92255.2,1697,0.83447206,3.7527113,277.09494,106.97774,6.46566,347.264,-5.95939,-2.48037,35.2137,39.0259
1980-07-20 02:45:46,1,-0.533333,1.73333,0.0333333,0.258199,1,1,77778.3,84930.9,1697,0.83448207,3.7525663,277.07153,106.97777,6.60551,343.129,-5.68309,-3.256,35.8333,37.4447
1980-07-20 02:48:28,1,0.166667,0.633333,-0.8,0.210819,1,1,79077.9,62124.7,1697,0.83449709,3.7523489,277.04422,106.9778,5.75038,345.051,-10.6177,-0.169616,36.1314,32.0251
1980-07-20 02:51:10,1,3.0,-0.45,4.7,0.384057,1,1,135817.0,84242.7,1697,0.83451211,3.7521305,277.02081,106.97783,6.41151,356.1,-14.0188,16.5556,47.3516,37.2927
1980-07-20 02:53:52,1,3.3,-1.025,3.725,0.434454,1,1,69317.3,43890.6,1697,0.83452207,3.7519855,276.99741,106.97786,4.6772,368.903,-24.227,22.9579,33.8282,26.9181
1980-07-20 02:56:34,1,3.36667,-1.7,2.43333,0.194365,1,1,73232.3,79602.8,1697,0.83453709,3.7517672,276.97009,106.97789,6.65447,368.194,-22.7017,10.1443,34.7704,36.2512
1980-07-20 02:59:16,1,3.6,-1.26667,2.4,0.54365,1,1,53956.9,63443.5,1697,0.83455211,3.7515497,276.94669,106.97794,5.21979,370.561,-26.8972,17.9998,29.8457,32.3632
1980-07-20 03:01:58,1,3.96667,-1.0,4.43333,0.466667,1,1,97107.7,52787.8,1697,0.83456206,3.7514038,276.92328,106.97795,6.13286,373.835,-21.3933,30.97,40.0391,29.5206
1980-07-20 03:04:40,1,4.3,-1.1,5.1,0.0,1,1,61629.8,32467.4,1697,0.83457708,3.7511864,276.89597,106.978,4.75648,376.676,-18.8554,35.5687,31.8972,23.1516
1980-07-20 03:07:22,1,4.775,-0.275,4.625,0.381608,1,1,42676.5,40964.2,1697,0.83459204,3.7509689,276.87256,106.97803,4.60279,383.4,-14.39,31.0824,26.5431,26.0052
1980-07-20 03:10:04,1,4.8,-0.95,3.925,0.198431,1,1,66907.0,45691.4,1697,0.83460706,3.7507515,276.84915,106.97806,4.99562,382.138,-18.7583,29.3197,33.2348,27.4647
1980-07-20 03:12:46,1,0.05,-0.15,7.7,0.324037,1,1,28277.4,35375.1,1697,0.83461702,3.7506065,276.82184,106.97809,4.40782,344.41,-8.39498,54.5364,21.6062,24.1661
1980-07-20 03:15:28,1,2.73333,-0.766667,6.6,0.210819,1,1,112192.0,50832.9,1697,0.83463204,3.7503881,276.79843,106.97812,5.29886,364.453,-12.294,42.7119,43.0366,28.9688
1980-07-20 03:18:10,1,2.93333,-0.5,6.6,0.298142,1,1,102981.0,55555.0,1697,0.834647,3.7501707,276.77502,106.97815,6.01841,365.785,-13.4074,44.1704,41.2322,30.2844
1980-07-20 03:20:52,1,2.36667,0.6,6.96667,0.266667,1,1,86218.8,47767.4,1697,0.83465701,3.7500257,276.74771,106.97818,5.2731,368.504,-5.76978,45.0547,37.7276,28.0817
1980-07-20 03:23:34,1,3.03333,1.16667,6.46667,0.316228,1,1,101789.0,65833.4,1697,0.83467197,3.7498083,276.7243,106.97821,6.18885,369.787,-7.77837,39.2211,40.9928,32.9671
1980-07-20 03:26:16,1,2.5,0.333333,6.7,0.410961,1,1,62059.5,56195.5,1697,0.83468693,3.7495899,276.7009,106.97824,6.12217,359.976,-14.565,53.4991,32.0083,30.4585
1980-07-20 03:28:58,1,0.533333,4.33333,4.76667,0.216025,1,1,51556.5,48014.2,1697,0.83469695,3.749445,276.67358,106.97827,4.93439,347.932,25.984,35.5673,29.1742,28.1542
1980-07-20 03:31:40,1,0.3,4.6,5.5,0.0,1,1,48464.2,49827.8,1697,0.83471191,3.7492275,276.65018,106.9783,4.76222,347.326,22.3724,34.4967,28.2858,28.681
1980-07-20 03:34:22,1,0.45,4.7,4.825,0.298957,1,1,52169.3,37770.8,1697,0.83472693,3.7490101,276.62286,106.97833,4.41891,346.716,19.8367,31.7808,29.3471,24.971
1980-07-20 03:37:04,1,-0.35,4.7,5.1,0.180278,1,1,42466.4,45296.7,1697,0.83474189,3.7487917,276.59946,106.97836,4.5043,341.323,22.3148,33.6502,26.4777,27.3458
1980-07-20 03:39:46,1,-0.5,4.6,5.1,0.0,1,1,49453.3,47101.1,1697,0.8347519,3.7486467,276.57605,106.97839,5.36349,339.323,19.0461,31.6356,28.573,27.8852
1980-07-20 03:42:28,1,-0.7,5.0,4.83333,0.188562,1,1,45924.8,40085.0,1697,0.83476686,3.7484293,276.54874,106.97842,4.20811,341.473,20.6369,31.5104,27.5348,25.7246
1980-07-20 03:45:10,1,-0.433333,5.2,4.16667,0.312694,1,1,56692.6,43327.8,1697,0.83478189,3.7482119,276.52533,106.97845,4.84554,338.536,20.272,25.7907,30.5929,26.7449
1980-07-20 03:47:52,1,-0.466667,5.3,4.16667,0.352767,1,1,41796.3,52494.7,1697,0.83479184,3.7480669,276.50192,106.97849,4.80694,340.561,18.5166,26.5629,26.268,29.4385
1980-07-20 03:50:34,1,-0.4,5.6,2.96667,0.249444,1,1,43918.4,47398.6,1697,0.83480686,3.7478485,276.47461,106.97852,4.82339,339.16,17.8582,15.875,26.9266,27.9731
1980-07-20 03:53:16,1,0.566667,5.23333,4.23333,0.258199,1,1,45676.7,44036.4,1697,0.83482182,3.7476311,276.4512,106.97855,4.89339,349.784,23.4174,24.454,27.4603,26.9627
1980-07-20 03:55:58,1,0.4,4.96667,4.2,0.274874,1,1,61014.8,44366.6,1697,0.83483183,3.7474861,276.4278,106.97858,4.96066,347.265,19.4226,19.7397,31.7377,27.0636
1980-07-20 03:58:40,1,0.875,4.75,4.8,0.156125,1,1,47887.9,50092.1,1697,0.83484679,3.7472687,276.40048,106.97861,5.39314,347.768,21.9798,30.4623,28.1171,28.7569
1980-07-20 04:01:22,1,0.6,4.5,5.35,0.35,1,1,47620.9,46888.5,1697,0.83486176,3.7470503,276.37708,106.97864,5.46116,348.552,16.5566,31.6621,28.0386,27.8222
1980-07-20 04:04:04,1,0.5,5.03333,4.5,0.274874,1,1,52251.9,50674.7,1697,0.83487672,3.7468328,276.35367,106.97867,5.18717,344.564,21.4916,24.7223,29.3703,28.9237
1980-07-20 04:06:46,1,-0.1,5.03333,4.3,0.298142,1,1,57698.2,38477.9,1697,0.83488673,3.7466879,276.32635,106.9787,4.58034,340.888,18.1789,23.0325,30.8631,25.2037
1980-07-20 04:09:28,1,1.86667,3.7,6.23333,0.452155,1,1,48483.9,44903.9,1697,0.83490169,3.7464705,276.30295,106.97873,5.02658,360.591,8.51721,39.3215,28.2916,27.227
1980-07-20 04:12:10,1,1.26667,4.96667,4.53333,0.270801,1,1,64701.8,46949.5,1697,0.83491665,3.7462521,276.27954,106.97876,4.97722,354.579,20.9882,27.5794,32.6826,27.8403
1980-07-20 04:14:52,1,1.7,4.7,4.66667,0.188562,1,1,53670.2,37217.6,1697,0.83492661,3.7461071,276.25223,106.97879,4.57657,356.845,24.9718,28.291,29.7663,24.7875
1980-07-20 04:17:34,1,0.333333,4.6,5.36667,0.194365,1,1,51267.6,43551.9,1697,0.83494157,3.7458897,276.22882,106.97882,5.28211,352.163,17.5002,32.4803,29.0924,26.814
1980-07-20 04:20:16,1,1.425,5.05,4.2,0.253722,1,1,41603.7,36688.2,1697,0.83495659,3.7456722,276.20151,106.97885,4.7239,356.664,24.1806,25.6732,26.2074,24.6105
1980-07-20 04:22:59,1,2.0,5.2,2.93333,0.188562,1,1,53110.1,42052.3,1697,0.83496654,3.7455263,276.1781,106.97887,5.03393,359.351,17.3806,13.9231,29.6106,26.3483
1980-07-20 04:25:41,1,1.56667,4.63333,4.66667,0.282843,1,1,45263.2,40839.9,1697,0.8349815,3.7453089,276.15469,106.9789,5.49932,353.67,18.9609,29.1459,27.3357,25.9657
1980-07-20 04:28:23,1,1.43333,5.03333,3.86667,0.270801,1,1,50775.8,42438.8,1697,0.83499646,3.7450914,276.12738,106.97894,5.18665,348.984,20.2348,29.8504,28.9525,26.4691
1980-07-20 04:31:05,1,1.03333,5.16667,4.66667,0.270801,1,1,39634.7,36929.1,1697,0.83501142,3.744873,276.10397,106.97897,4.72086,349.194,15.9976,24.8425,25.5797,24.6912
1980-07-20 04:36:44,-1,nan,nan,nan,nan,1,3,nan,nan,1697,0.8350364,3.7445107,276.05325,106.97902,nan,329.111,19.6341,24.6101,nan,nan
1980-07-20 04:39:26,1,2.2,4.93333,4.06667,0.362093,1,1,54771.7,39722.8,1697,0.83505136,3.7442932,276.02594,106.97905,5.52813,356.366,16.1217,23.9924,30.0702,25.6081
1980-07-20 04:42:08,1,-0.366667,4.66667,4.7,0.620036,1,1,41236.0,34753.5,1697,0.83506632,3.7440748,276.00253,106.9791,4.57485,348.775,22.1444,20.4258,26.0913,23.9529
1980-07-20 04:44:50,1,-0.9,4.375,4.375,0.220794,1,1,53476.5,38203.7,1697,0.83507627,3.7439299,275.97913,106.97911,5.06164,332.442,9.74629,29.3823,29.7125,25.1137
1980-07-20 04:47:16,1,-1.86667,4.23333,3.26667,0.632456,1,1,60178.8,44488.2,1697,0.83509123,3.7437124,275.95572,106.97914,5.64221,328.319,12.9761,18.3996,31.5195,27.1007
1980-07-20 04:49:58,1,-0.6,4.33333,3.1,0.298142,1,1,67295.1,57167.0,1697,0.83510125,3.7435675,275.93231,106.97917,5.90755,334.112,15.6634,17.7638,33.3311,30.7207
1980-07-20 04:52:40,1,0.0666667,4.73333,4.16667,0.316228,1,1,50945.4,37841.2,1697,0.83511621,3.7433491,275.905,106.9792,4.63335,338.233,18.7187,22.6228,29.0008,24.9943
1980-07-20 04:55:22,1,-0.6,5.0,3.63333,0.188562,1,1,59763.0,34837.8,1697,0.83513117,3.7431316,275.88159,106.97923,4.62068,340.227,14.5269,19.0547,31.4104,23.9819
1980-07-20 04:58:04,-1,nan,nan,nan,nan,1,4,nan,nan,1697,0.83514613,3.7429142,275.85818,106.97926,nan,nan,nan,nan,nan,nan
1980-07-20 05:00:46,1,0.9,4.7,2.8,4.44089e-16,1,1,73385.3,44492.7,1697,0.83515614,3.7427692,275.83087,106.97929,5.23611,342.606,18.0964,16.325,34.8067,27.1021
1980-07-20 05:03:28,1,0.733333,5.1,2.66667,0.194365,1,1,36165.8,37781.2,1697,0.83517104,3.7425508,275.80746,106.97932,4.72246,345.903,24.8479,9.77947,24.4347,24.9744
1980-07-20 05:06:10,1,-1.46667,4.16667,4.46667,0.282843,1,1,59781.2,33964.4,1697,0.835186,3.7423334,275.78015,106.97935,3.81168,327.159,15.9811,23.6608,31.4152,23.6794
1980-07-20 05:08:53,1,-1.2,4.86667,4.46667,0.352767,1,1,44189.9,29653.0,1697,0.83519602,3.7421885,275.75671,106.97937,4.90769,330.17,19.3732,24.2674,27.0097,22.1255
1980-07-20 05:11:35,1,-0.6,5.0,4.3,0.0,1,1,46392.2,25886.3,1697,0.83521092,3.7419701,275.73331,106.9794,4.93875,329.865,16.561,24.6878,27.6745,20.6725
1980-07-20 05:14:17,1,0.233333,5.36667,3.5,0.210819,1,1,27732.4,27801.2,1697,0.83522588,3.7417526,275.70599,106.97943,4.40855,339.473,23.248,15.3037,21.3969,21.4234
1980-07-20 05:16:59,1,1.43333,5.2,2.26667,0.352767,1,1,54271.3,39792.1,1697,0.83523583,3.7416077,275.68259,106.97945,5.47305,346.363,17.3885,5.13251,29.9325,25.6305
1980-07-20 05:19:41,1,0.7,4.66667,1.06667,0.312694,1,1,77914.9,39362.4,1697,0.83525079,3.7413902,275.65918,106.97948,5.994,343.673,18.9475,2.38558,35.8648,25.4917
1980-07-20 05:22:23,1,1.35,5.5,4.0,0.342783,1,1,49131.9,35930.9,1697,0.83526576,3.7411718,275.63187,106.97952,5.34613,349.366,21.1602,14.5175,28.48,24.3552
1980-07-20 05:25:05,1,1.5,5.1,4.93333,0.188562,1,1,31764.6,30114.9,1697,0.83528072,3.7409544,275.60846,106.97955,4.69049,351.988,19.701,24.0679,22.8997,22.2971
1980-07-20 05:27:47,1,1.26667,5.26667,4.4,0.24037,1,1,55166.2,34276.8,1697,0.83529067,3.7408094,275.58505,106.97957,5.20624,348.532,19.0691,24.9997,30.1783,23.788
1980-07-20 05:30:29,1,1.4,5.16667,3.6,0.298142,1,1,27459.1,31046.1,1697,0.83530563,3.740592,275.55774,106.9796,4.69437,353.551,19.9635,12.6615,21.2912,22.6392
1980-07-20 05:33:11,1,1.33333,3.9,6.13333,0.333333,1,1,51702.3,33724.1,1697,0.83532059,3.7403736,275.53433,106.97963,5.05987,354.619,7.14162,36.8683,29.2155,23.5954
1980-07-20 05:35:53,1,1.63333,5.13333,4.0,0.194365,1,1,35583.6,37962.3,1697,0.83533055,3.7402287,275.51089,106.97964,4.67656,355.884,18.5645,18.8232,24.2372,25.0342
1980-07-20 05:38:35,1,1.86667,4.83333,2.3,0.312694,1,1,42598.8,44668.1,1697,0.83534551,3.7400112,275.48358,106.97968,4.95832,353.65,14.121,3.48019,26.519,27.1554
1980-07-20 05:41:17,1,0.866667,4.5,2.4,0.262467,1,1,81209.3,48565.7,1697,0.83536047,3.7397928,275.46021,106.97972,5.16199,346.301,15.6761,8.44003,36.6151,28.3154
1980-07-20 05:43:59,1,1.73333,4.8,2.8,0.169967,1,1,51866.5,45042.3,1697,0.83537042,3.7396479,275.43286,106.97974,4.99144,356.452,16.8035,8.07595,29.2618,27.2689
1980-07-20 05:46:41,1,1.76667,4.26667,3.23333,0.34641,1,1,59669.5,47836.9,1697,0.83538538,3.7394304,275.40945,106.97977,4.60572,369.194,19.2893,2.19527,31.3859,28.1021
1980-07-20 05:49:23,1,4.4,-1.26667,0.966667,0.253859,1,1,30472.0,38688.1,1697,0.83540034,3.739213,275.38605,106.9798,4.36545,364.676,-15.0685,2.23001,22.4289,25.2724
1980-07-20 05:52:05,1,4.53333,-1.53333,1.1,0.253859,1,1,50326.3,56399.1,1697,0.8354153,3.7389946,275.35873,106.97983,5.43868,365.743,-16.4045,0.783566,28.8241,30.5136
1980-07-20 05:54:47,1,4.76667,-1.8,1.83333,0.278887,1,1,24110.6,34633.8,1697,0.83542526,3.7388496,275.33533,106.97984,3.91825,363.697,-18.1344,2.67757,19.9509,23.9116
1980-07-20 05:57:29,1,4.86667,-2.03333,2.0,0.210819,1,1,25380.1,39226.8,1697,0.83544022,3.7386322,275.31192,106.97987,4.13863,364.625,-17.156,5.84783,20.4694,25.4478
1980-07-20 06:00:11,1,3.5,-2.05,0.475,0.338194,1,1,48849.3,47342.2,1697,0.83545518,3.7384148,275.28461,106.97992,5.33829,381.276,-20.5926,4.14931,28.398,27.9565
1980-07-20 06:02:53,1,3.875,-2.5,1.1,0.356195,1,1,34628.3,35164.8,1697,0.83546513,3.7382689,275.2612,106.97993,4.92787,372.069,-22.3905,5.43536,23.9097,24.0942
1980-07-20 06:05:35,1,4.66667,-2.86667,1.86667,0.282843,1,1,33132.9,40961.6,1697,0.83548003,3.7380514,275.23779,106.97997,4.60173,369.07,-15.785,5.94272,23.3877,26.0044
1980-07-20 06:08:17,1,4.83333,-2.66667,2.13333,0.305505,1,1,46859.8,46183.8,1697,0.835495,3.737834,275.21048,106.98,5.25243,365.264,-18.8705,6.4412,27.8137,27.6123
1980-07-20 06:10:59,1,5.1,-2.63333,2.26667,0.194365,1,1,24316.1,45197.2,1697,0.83550495,3.7376881,275.18704,106.98001,4.59528,365.653,-18.6885,4.74274,20.0357,27.3158
1980-07-20 06:13:41,1,5.06667,-1.76667,2.4,0.210819,1,1,35524.0,43651.2,1697,0.83551985,3.7374706,275.16364,106.98004,4.8412,368.195,-18.2505,6.7562,24.2169,26.8445
1980-07-20 06:16:23,1,5.4,-1.2,2.4,8.88178e-16,1,1,33248.3,43695.5,1697,0.83553481,3.7372532,275.13632,106.98007,5.32209,369.021,-13.9538,7.32272,23.4284,26.8582
1980-07-20 06:19:05,1,5.23333,-1.66667,2.8,0.194365,1,1,36559.9,45954.3,1697,0.83554971,3.7370358,275.11292,106.9801,4.89866,369.714,-13.3311,7.55636,24.5675,27.5436
1980-07-20 06:21:47,1,5.35,-1.525,2.8,0.253722,1,1,25554.4,45272.7,1697,0.83555967,3.7368898,275.08951,106.98012,4.46853,365.894,-15.6474,7.9716,20.5396,27.3386
1980-07-20 06:24:29,1,5.5,-1.6,2.8,0.282843,1,1,31359.9,45288.5,1697,0.83557463,3.7366724,275.06219,106.98015,4.71568,370.146,-13.2542,8.7594,22.7534,27.3434
1980-07-20 06:27:11,1,5.76667,-1.16667,2.53333,0.270801,1,1,23946.4,43567.5,1697,0.83558953,3.736455,275.03879,106.98018,4.68897,365.935,-9.53669,7.90527,19.8828,26.8188
1980-07-20 06:29:53,1,5.46667,-1.8,2.0,0.262467,1,1,39376.9,43368.8,1697,0.83559954,3.73631,275.01144,106.98019,4.90177,366.105,-14.5299,5.55329,25.4964,26.7576
1980-07-20 06:32:35,1,5.7,-0.966667,1.86667,0.278887,1,1,29847.3,43167.5,1697,0.83561444,3.7360916,274.98804,106.98022,4.92698,363.594,-11.124,6.37997,22.1978,26.6954
1980-07-20 06:35:17,1,5.86667,-0.566667,1.2,0.210819,1,1,44046.9,36110.0,1697,0.8356294,3.7358742,274.96463,106.98026,4.60529,362.614,-9.78872,7.10181,26.966,24.4159
1980-07-20 06:37:59,1,5.7,-0.0333333,1.86667,0.405518,1,1,28508.5,40790.4,1697,0.83563936,3.7357292,274.93732,106.98029,4.96625,364.602,-7.33502,6.06744,21.6943,25.95
1980-07-20 06:40:41,1,5.93333,-0.5,1.86667,0.194365,1,1,42451.7,42681.7,1697,0.83565426,3.7355118,274.91391,106.98032,5.36747,365.82,-7.55,7.83499,26.4731,26.5448
1980-07-20 06:43:23,1,5.75,-0.375,2.4,0.37333,1,1,37583.1,44904.4,1697,0.83566922,3.7352934,274.8905,106.98033,5.62522,366.99,-6.37574,7.50927,24.9089,27.2271
1980-07-20 06:46:05,1,5.825,0.35,2.7,0.233184,1,1,44381.0,48101.3,1697,0.83568412,3.735076,274.86319,106.98036,5.89887,365.871,-3.58621,7.75121,27.068,28.1797
1980-07-20 06:48:47,1,5.8,0.333333,2.66667,0.253859,1,1,36067.2,41457.9,1697,0.83569407,3.734931,274.83978,106.98039,5.51491,366.395,-3.44812,6.85668,24.4014,26.1614
1980-07-20 06:51:29,1,5.86667,0.533333,2.8,0.194365,1,1,41551.6,44349.7,1697,0.83570904,3.7347126,274.81638,106.98042,6.04751,365.34,-4.8248,6.89241,26.191,27.0585
1980-07-20 06:54:11,1,6.03333,-0.466667,2.4,0.194365,1,1,35662.7,43378.4,1697,0.83572394,3.7344952,274.78906,106.98045,5.35577,366.575,-6.18298,7.74036,24.2642,26.7605
1980-07-20 06:56:53,1,5.93333,0.1,2.66667,0.466667,1,1,37129.2,44858.5,1697,0.83573395,3.7343502,274.76563,106.98047,5.51908,366.885,-3.42417,6.34927,24.758,27.2132
1980-07-20 06:59:35,1,5.63333,-0.633333,2.8,0.210819,1,1,47979.1,42871.5,1697,0.83574885,3.7341328,274.74222,106.9805,5.89636,365.689,-5.35379,7.94399,28.1439,26.6037
1980-07-20 07:02:17,1,5.63333,-0.633333,2.93333,0.282843,1,1,39877.6,45742.6,1697,0.83576375,3.7339144,274.7149,106.98053,5.90299,365.757,-8.27659,9.78497,25.658,27.4801
1980-07-20 07:04:59,1,5.9,-0.5,3.2,0.0,1,1,45070.6,45621.5,1697,0.83577371,3.7337694,274.6915,106.98055,5.75198,365.699,-3.76479,11.2657,27.2775,27.4437
1980-07-20 07:07:41,1,5.85,-0.5,3.4,0.206155,1,1,42590.1,48641.5,1697,0.83578867,3.733552,274.66418,106.98058,6.31436,364.885,-5.20059,10.3144,26.5163,28.3375
1980-07-20 07:10:23,1,5.7,-0.266667,3.6,0.359011,1,1,46102.7,46290.4,1697,0.83580357,3.7333345,274.64078,106.98061,5.97317,362.519,-5.60724,11.7391,27.5881,27.6442
1980-07-20 07:13:05,1,5.8,-0.5,3.73333,0.188562,1,1,47546.2,51312.1,1697,0.83581847,3.7331171,274.61737,106.98064,6.37835,364.209,-6.03763,14.4014,28.0166,29.105
1980-07-20 07:15:47,1,5.8,-0.5,4.0,0.0,1,1,45220.1,47106.8,1697,0.83582842,3.7329721,274.59003,106.98065,5.86025,363.183,-5.36049,13.6296,27.3227,27.8869
1980-07-20 07:18:29,1,5.4,-0.6,4.4,8.88178e-16,1,1,51201.8,43684.8,1697,0.83584332,3.7327547,274.56662,106.98068,5.93772,364.898,-5.58478,15.264,29.0737,26.8549
1980-07-20 07:21:11,1,5.23333,0.333333,4.86667,0.316228,1,1,46632.1,46855.3,1697,0.83585829,3.7325373,274.54321,106.98071,5.90918,361.442,-4.07216,19.0044,27.746,27.8123
1980-07-20 07:23:53,1,5.23333,1.06667,4.96667,0.282843,1,1,50084.0,45046.0,1697,0.83586824,3.7323923,274.5159,106.98073,5.90337,364.927,-0.496006,19.5329,28.7546,27.2701
1980-07-20 07:26:35,1,5.1,0.575,5.4,0.376663,1,1,41628.5,39439.0,1697,0.83588314,3.7321749,274.49249,106.98076,5.56505,365.823,1.34371,19.5466,26.2152,25.5165
1980-07-20 07:29:17,1,4.85,0.9,5.8,0.25,1,1,66992.0,42064.6,1697,0.83589804,3.7319574,274.46909,106.98079,6.02909,363.299,0.682896,23.9404,33.2559,26.3522
1980-07-20 07:31:59,1,4.5,0.9,6.03333,0.329983,1,1,59470.7,40022.0,1697,0.835908,3.7318115,274.44174,106.9808,5.78456,359.33,1.3588,26.5784,31.3335,25.7044
1980-07-20 07:34:41,1,4.36667,1.13333,6.03333,0.282843,1,1,67167.8,42652.4,1697,0.8359229,3.7315941,274.41833,106.98083,5.6672,360.068,-1.5745,24.5819,33.2996,26.5356
1980-07-20 07:37:23,1,3.73333,-0.733333,6.3,0.437163,1,1,64363.4,30547.3,1697,0.83593786,3.7313766,274.39493,106.98087,5.49713,357.197,-4.42104,27.5217,32.597,22.4566
1980-07-20 07:40:05,1,5.1,0.7,4.56667,0.329983,1,1,39681.7,28708.9,1697,0.83595276,3.7311592,274.36761,106.9809,4.72489,360.204,8.61571,7.58206,25.5949,21.7704
1980-07-20 07:42:47,1,5.43333,1.23333,4.36667,0.216025,1,1,29683.0,31857.1,1697,0.83596271,3.7310143,274.34421,106.98091,5.28814,359.398,0.00854485,13.9995,22.1366,22.933
1980-07-20 07:45:29,1,5.23333,1.63333,4.56667,0.282843,1,1,34810.1,38494.9,1697,0.83597761,3.7307968,274.3208,106.98094,5.20543,356.727,2.6962,15.0308,23.9723,25.2092
1980-07-20 07:48:11,1,5.05,1.95,4.3,0.273861,1,1,41896.6,42541.4,1697,0.83599252,3.7305794,274.29349,106.98097,5.67351,357.57,3.49438,13.1235,26.2995,26.5011
1980-07-20 07:50:53,1,5.1,1.9,4.83333,0.188562,1,1,50697.2,47580.5,1697,0.83600247,3.7304344,274.27005,106.98099,6.22818,361.035,3.70186,15.4721,28.9301,28.0267
1980-07-20 07:53:35,1,4.9,1.46667,4.43333,0.266667,1,1,54609.0,44155.8,1697,0.83601743,3.730217,274.24274,106.98102,6.14885,361.152,3.55621,13.3239,30.0255,26.9993